Location: Bazugues
(43.4465°N, 0.3432°E)
Time: 19:25:14
(UTC+00:00)

ESTCUBE 1 - Visible Passes

Search period start: 15 May 2026 00:00
Search period end: 25 May 2026 00:00
Orbit: 618 x 632 km, 97.7° (Epoch: 15 May)

Date Brightness Start Highest point End Pass type
(mag) Time Alt. Az. Time Alt. Az. Time Alt. Az.
15 May ? 20:16:50 11° SSE 20:20:51 57° ENE 20:25:08 10° N visible
15 May ? 21:55:11 10° WSW 21:57:26 14° W 21:59:41 10° WNW visible
16 May ? 20:35:50 13° SSE 20:39:41 90° W 20:44:03 10° NNW visible
17 May ? 20:54:51 13° S 20:58:34 56° W 21:02:51 10° NNW visible
18 May ? 21:13:52 12° SSW 21:17:30 35° W 21:21:30 10° NNW visible
19 May ? 19:56:15 10° SE 20:00:11 34° ENE 20:04:07 10° N visible
19 May ? 21:33:05 10° SW 21:36:29 22° W 21:39:54 10° NW visible
20 May ? 20:14:43 10° SSE 20:18:57 54° ENE 20:23:12 10° N visible
20 May ? 21:53:10 10° WSW 21:55:31 14° W 21:57:52 10° WNW visible
21 May ? 20:33:37 11° SSE 20:37:47 87° ENE 20:42:08 10° NNW visible
22 May ? 20:52:38 11° S 20:56:38 58° W 21:00:56 10° NNW visible
23 May ? 21:11:38 10° SSW 21:15:34 36° W 21:19:35 10° NNW visible
24 May ? 19:54:22 10° SE 19:58:15 33° ENE 20:02:09 10° N visible
24 May ? 21:31:05 10° SSW 21:34:32 23° W 21:38:01 10° NW visible
